Regional Weather Roundup
Issued by NWS Bismarck, ND

Home | Current Version | Previous Version | Text Only | Print | Product List | Glossary On
Versions: 1 2 3 4 5 6 7 8 9 10 11 12 13 14 15 16 17 18 19 20 21 22 23 24 25 26 27 28 29 30 31 32 33 34 35 36 37 38 39 40 41 42 43 44 45 46 47 48 49 50
000
ASUS43 KBIS 191520
RWRBIS

NWR BROADCAST TEXT
NATIONAL WEATHER SERVICE BISMARCK ND
1000 AM CDT SAT APR 19 2014

NOTE: "FAIR" INDICATES FEW OR NO CLOUDS BELOW 12,000 FEET WITH NO
SIGNIFICANT WEATHER AND/OR OBSTRUCTIONS TO VISIBILITY.


CITY           SKY/WX    TMP DP  RH WIND       PRES   REMARKS
WILLISTON      CLOUDY    42  36  79 W13G22    29.87R
MINOT          PTSUNNY   45  36  70 SW17G30   29.76R
MINOT AFB      MOSUNNY   45  40  80 W25G32    29.75R
BISMARCK       SUNNY     53  27  36 W24G35    29.90R
DICKINSON      SUNNY     49  25  39 W24G33    29.88R
GARRISON         N/A     46  36  68 W31G37    29.83R
HETTINGER ARPT SUNNY     50  24  36 W23G30    29.95R
JAMESTOWN      SUNNY     53  34  48 W18       29.85R
CARRINGTON     FAIR      50  36  57 W20G25    29.83S
CROSBY         CLOUDY    39  39 100 W22G35    29.81R
HARVEY         FAIR      48  36  61 W29G37    29.80R
HAZEN          FAIR      46  32  57 W21G33    29.87R
LINTON         FAIR      54  28  37 W21G26    29.92R
MANDAN         FAIR      50  28  43 W26G35    29.89R
OAKES          FAIR      55  37  50 W9G17     29.91R
RUGBY          FAIR      46  36  66 W28G37    29.75R
STANLEY        CLOUDY    41  41 100 W25G36    29.79R
TIOGA          CLOUDY    41  41 100 W31       29.82R
WATFORD CITY   CLOUDY    39  36  87 W18G28    29.86R
$$

CITY           SKY/WX    TMP DP  RH WIND       PRES   REMARKS
GRAND FORKS    MOSUNNY   54  40  59 SW15      29.79R
GRAND FORKS AF SUNNY     54  40  59 W14       29.79R
DEVILS LAKE    SUNNY     48  36  61 W20       29.77R
FARGO          PTSUNNY   55  41  59 SW12      29.85R
CANDO          FAIR      48  36  61 W23G31    29.73R
CAVALIER       FAIR      50  39  66 SW7G17    29.72R
GRAFTON        FAIR      50  39  66 SW14G22   29.75S
GWINNER        SUNNY     55  39  54 W15       29.91R
LANGDON        FAIR      46  37  71 W20       29.71R
ROLLA          FAIR      43  37  81 W24       29.69R
WALHALLA         N/A     50  39  66 SW13G22   29.70S
$$

CITY           SKY/WX    TMP DP  RH WIND       PRES   REMARKS
ABERDEEN       PTSUNNY   53  37  54 W9        29.95R
MOBRIDGE       MOSUNNY   54  27  35 NW15      29.93R
BUFFALO          N/A     51  21  30 W20       29.93R
RAPID CITY     MOSUNNY   55  13  18 NW14      30.03R
GLASGOW        CLOUDY    40  33  76 NW17G26   29.92S
SIDNEY         MOSUNNY   43  36  75 W20       29.91R
WOLF POINT     MOSUNNY   45  34  65 W21G29    29.91S
GLENDIVE       SUNNY     46  32  57 W23G30    29.95R
MILES CITY     SUNNY     49  25  39 W18       29.98R
BAKER          SUNNY     48  24  39 W21G31    29.95R
$$

CITY           SKY/WX    TMP DP  RH WIND       PRES   REMARKS
BILLINGS       MOSUNNY   43  18  36 S5        30.00S
GREAT FALLS    SUNNY     45  16  31 SW15      29.93S
REGINA         CLOUDY    32  30  93 NW25G35   29.79R WCI  19
ESTEVAN        LGT RAIN  39  39 100 W17G23    29.77R
$$




USA.gov is the U.S. government's official web portal to all federal, state and local government web resources and services.